Aérodrome :
LOGIN :

S'inscrire | Disclaimer

   EN    FR    IT 

 










Légende :    VFR   VFR Marginal   IFR   IFR Intensif   IFR Très Intensif
Visi : 
Plafond : 
>= 8 km
>= 3000ft
5 à 8 km
1000 à 3000 ft
1500m à 5 km
500 à 1000 ft
800 à 1500m
200 à 500 ft
< 800m
< 200 ft
Symboles :   Orages  Brouillard  Fortes neiges  Fortes précipitations  Vent > 20 kt
SIGMETs :   Divers  Orages  Givrage  Turbulence  Onde Orograph.  Cendres Volcan.






- Altitude de l'aérodrome : 446 ft
- Code IATA : VNE


LFRV - Vannes-Meucon

DERNIER METAR :
  • 231630Z AUTO 27009KT 220V310 9999 FEW029 SCT064 BKN110 17/11 Q1005

METARs EXPIRÉS :
  • 231600Z AUTO 29010KT 260V320 9999 BKN018 BKN023 BKN064 17/12 Q1005
  • 231530Z AUTO 28009KT 9999 FEW036 SCT046 BKN060 16/13 Q1004
  • 231500Z AUTO 28011KT 240V310 9999 BKN012 BKN018 BKN023 16/13 Q1004
  • 231430Z AUTO 26010KT 210V280 9999 FEW014/// BKN019/// BKN029/// ///TCU 17/14 Q1004
  • 231400Z AUTO 26010KT 220V290 9999 SCT022 OVC033 18/15 Q1004

TAF N/A



MET'MAP, la Météo Aéronautique d'un coup d'oeil ! - Copyright ORBIFLY Décembre 2007 - Disclaimer

ORBIFLY MET'MAP TEAM :

Programmation & Développement : Alexandra Zaïnal
Sur une idée originale de : Baudouin d'Aumeries
Assistance à la programmation : Marc-Olivier Méhu
Soutien technique & logistique : Manuel Goepfert

Contact : metmap@orbifly.com




SOURCES & CREDITS :

   NOAA